timestamp,wind_dir_avg,wind_spd_avg,wind_spd_max_dir,wind_spd_gust,battery_voltage,lat,long
2023-08-16 00:04:00+00:00,204.0,2.94,221.0,3.44,12.49,47.59359,-54.27349
2023-08-16 00:14:00+00:00,184.0,2.93,187.0,3.15,12.41,47.59359,-54.27349
2023-08-16 00:24:00+00:00,192.0,2.78,191.0,2.94,12.41,47.59359,-54.27349
2023-08-16 00:34:00+00:00,197.0,2.57,199.0,2.77,12.41,47.59359,-54.27349
2023-08-16 00:44:00+00:00,192.0,3.09,195.0,3.41,12.41,47.59359,-54.27349
2023-08-16 00:54:00+00:00,218.0,3.69,232.0,4.5,12.41,47.59359,-54.27349
2023-08-16 01:04:00+00:00,213.0,2.79,234.0,4.01,12.41,47.59359,-54.27349
2023-08-16 01:14:01+00:00,208.0,2.27,207.0,2.61,12.41,47.59359,-54.27349
2023-08-16 01:24:01+00:00,202.0,2.11,198.0,2.32,12.41,47.59359,-54.27349
2023-08-16 01:34:01+00:00,186.0,2.71,189.0,3.08,12.41,47.59359,-54.27349
2023-08-16 01:44:01+00:00,211.0,4.19,217.0,4.82,12.41,47.59359,-54.27349
2023-08-16 01:54:01+00:00,214.0,3.8,222.0,4.42,12.41,47.59359,-54.27349
2023-08-16 02:04:01+00:00,214.0,3.85,218.0,4.31,12.41,47.59359,-54.27349
2023-08-16 02:14:00+00:00,216.0,2.91,217.0,3.62,12.41,47.59359,-54.27349
2023-08-16 02:24:00+00:00,218.0,2.88,224.0,3.42,12.41,47.59359,-54.27349
2023-08-16 02:34:00+00:00,221.0,2.5,241.0,3.26,12.41,47.59359,-54.27349
2023-08-16 02:44:00+00:00,254.0,3.2,261.0,3.68,12.41,47.59359,-54.27349
2023-08-16 02:54:00+00:00,263.0,3.44,265.0,3.74,12.41,47.59359,-54.27349
2023-08-16 03:04:00+00:00,256.0,3.31,258.0,3.76,12.41,47.59359,-54.27349
2023-08-16 03:14:00+00:00,250.0,3.28,250.0,3.86,12.41,47.59359,-54.27349
2023-08-16 03:24:00+00:00,261.0,3.89,263.0,4.29,12.41,47.59359,-54.27349
2023-08-16 03:34:00+00:00,256.0,4.2,257.0,4.54,12.41,47.59359,-54.27349
2023-08-16 03:44:00+00:00,262.0,3.39,261.0,3.74,12.41,47.59359,-54.27349
2023-08-16 03:54:00+00:00,243.0,3.51,243.0,3.89,12.41,47.59359,-54.27349
2023-08-16 04:04:00+00:00,233.0,4.28,232.0,4.68,12.41,47.59359,-54.27349
2023-08-16 04:14:01+00:00,231.0,4.6,230.0,5.39,12.41,47.59359,-54.27349
2023-08-16 04:24:01+00:00,224.0,4.24,224.0,4.68,12.41,47.59359,-54.27349
2023-08-16 04:34:01+00:00,226.0,3.68,218.0,4.83,12.41,47.59359,-54.27349
2023-08-16 04:44:01+00:00,228.0,4.11,227.0,5.01,12.41,47.59359,-54.27349
2023-08-16 04:54:01+00:00,239.0,4.05,250.0,4.75,12.41,47.59359,-54.27349
2023-08-16 05:04:01+00:00,229.0,3.87,230.0,4.43,12.41,47.59359,-54.27349
2023-08-16 05:14:00+00:00,241.0,4.46,246.0,5.43,12.33,47.59359,-54.27349
2023-08-16 05:24:00+00:00,236.0,3.89,239.0,4.36,12.33,47.59359,-54.27349
2023-08-16 05:34:00+00:00,235.0,4.21,238.0,5.32,12.33,47.59359,-54.27349
2023-08-16 05:44:00+00:00,218.0,2.71,221.0,3.13,12.33,47.59359,-54.27349
2023-08-16 05:54:00+00:00,226.0,3.12,231.0,3.44,12.33,47.59359,-54.27349
2023-08-16 06:04:00+00:00,233.0,3.47,234.0,4.02,12.33,47.59359,-54.27349
2023-08-16 06:14:01+00:00,228.0,3.4,232.0,3.95,12.33,47.59359,-54.27349
2023-08-16 06:24:01+00:00,223.0,3.57,222.0,4.13,12.33,47.59359,-54.27349
2023-08-16 06:34:01+00:00,235.0,2.95,241.0,3.26,12.33,47.59359,-54.27349
2023-08-16 06:44:01+00:00,238.0,3.35,242.0,3.82,12.33,47.59359,-54.27349
2023-08-16 06:54:01+00:00,235.0,3.47,240.0,4.04,12.33,47.59359,-54.27349
2023-08-16 07:04:01+00:00,249.0,3.92,250.0,4.47,12.33,47.59359,-54.27349
2023-08-16 07:14:00+00:00,249.0,3.37,252.0,3.91,12.33,47.59359,-54.27349
2023-08-16 07:24:00+00:00,234.0,2.41,237.0,2.88,12.33,47.59359,-54.27349
2023-08-16 07:34:00+00:00,234.0,2.41,229.0,2.75,12.33,47.59359,-54.27349
2023-08-16 07:44:00+00:00,241.0,3.45,247.0,4.21,12.33,47.59359,-54.27349
2023-08-16 07:54:00+00:00,247.0,4.38,248.0,4.86,12.33,47.59359,-54.27349
2023-08-16 08:04:00+00:00,241.0,4.19,247.0,4.98,12.33,47.59359,-54.27349
2023-08-16 08:14:00+00:00,226.0,2.76,218.0,3.43,12.25,47.59359,-54.27349
2023-08-16 08:24:00+00:00,230.0,3.01,229.0,3.56,12.25,47.59359,-54.27349
2023-08-16 08:34:00+00:00,231.0,2.56,228.0,2.94,12.25,47.59359,-54.27349
2023-08-16 08:44:00+00:00,237.0,3.45,236.0,3.79,12.25,47.59359,-54.27349
2023-08-16 08:54:00+00:00,229.0,3.13,230.0,3.49,12.25,47.59359,-54.27349
2023-08-16 09:04:00+00:00,227.0,3.77,231.0,4.52,12.25,47.59359,-54.27349
2023-08-16 09:14:00+00:00,218.0,4.09,216.0,4.91,12.17,47.59359,-54.27349
2023-08-16 09:24:00+00:00,225.0,3.83,225.0,4.1,12.17,47.59359,-54.27349
2023-08-16 09:34:00+00:00,226.0,3.61,226.0,4.08,12.17,47.59359,-54.27349
2023-08-16 09:44:00+00:00,239.0,4.17,237.0,4.43,12.17,47.59359,-54.27349
2023-08-16 09:54:00+00:00,236.0,4.22,232.0,4.72,12.17,47.59359,-54.27349
2023-08-16 10:04:00+00:00,236.0,3.63,237.0,4.06,12.17,47.59359,-54.27349
2023-08-16 10:14:00+00:00,239.0,3.99,240.0,4.42,12.49,47.59359,-54.27349
2023-08-16 10:24:00+00:00,242.0,3.7,237.0,4.29,12.49,47.59359,-54.27349
2023-08-16 10:34:00+00:00,237.0,3.31,244.0,3.74,12.49,47.59359,-54.27349
2023-08-16 10:44:00+00:00,230.0,3.07,231.0,3.48,12.49,47.59359,-54.27349
2023-08-16 10:54:00+00:00,236.0,3.09,240.0,3.81,12.49,47.59359,-54.27349
2023-08-16 11:04:00+00:00,286.0,3.29,287.0,4.6,12.49,47.59359,-54.27349
2023-08-16 11:14:01+00:00,320.0,3.65,321.0,4.29,13.29,47.59359,-54.27349
2023-08-16 11:24:01+00:00,310.0,3.55,317.0,4.85,13.29,47.59359,-54.27349
2023-08-16 11:34:01+00:00,316.0,5.05,317.0,5.78,13.29,47.59359,-54.27349
2023-08-16 11:44:01+00:00,327.0,4.47,327.0,5.01,13.29,47.59359,-54.27349
2023-08-16 11:54:01+00:00,325.0,4.24,324.0,4.69,13.29,47.59359,-54.27349
2023-08-16 12:04:01+00:00,332.0,3.9,334.0,4.37,13.29,47.59359,-54.27349
2023-08-16 12:14:00+00:00,340.0,6.87,337.0,7.79,13.6,47.59359,-54.27349
2023-08-16 12:24:00+00:00,335.0,3.98,346.0,4.97,13.6,47.59359,-54.27349
2023-08-16 12:34:00+00:00,336.0,6.38,342.0,7.23,13.6,47.59359,-54.27349
2023-08-16 12:44:00+00:00,325.0,5.03,328.0,5.46,13.6,47.59359,-54.27349
2023-08-16 12:54:00+00:00,339.0,6.85,344.0,8.68,13.6,47.59359,-54.27349
2023-08-16 13:04:00+00:00,326.0,5.0,324.0,5.98,13.6,47.59359,-54.27349
2023-08-16 13:14:00+00:00,332.0,6.88,331.0,7.54,13.6,47.59359,-54.27349
2023-08-16 13:24:00+00:00,328.0,5.11,324.0,7.11,13.6,47.59359,-54.27349
2023-08-16 13:34:00+00:00,329.0,5.1,326.0,5.71,13.6,47.59359,-54.27349
2023-08-16 13:44:00+00:00,319.0,5.06,317.0,6.19,13.6,47.59359,-54.27349
2023-08-16 13:54:00+00:00,3.0,7.35,5.0,8.11,13.6,47.59359,-54.27349
2023-08-16 14:04:00+00:00,1.0,6.31,0.0,7.06,13.6,47.59359,-54.27349
2023-08-16 14:14:00+00:00,350.0,6.48,353.0,7.41,13.6,47.59359,-54.27349
2023-08-16 14:24:00+00:00,339.0,3.69,340.0,4.56,13.6,47.59359,-54.27349
2023-08-16 14:34:00+00:00,355.0,6.13,353.0,6.68,13.6,47.59359,-54.27349
2023-08-16 14:44:00+00:00,355.0,4.94,355.0,5.2,13.6,47.59359,-54.27349
2023-08-16 14:54:00+00:00,358.0,2.91,354.0,3.34,13.6,47.59359,-54.27349
2023-08-16 15:04:00+00:00,345.0,3.42,356.0,4.52,13.6,47.59359,-54.27349
2023-08-16 15:14:01+00:00,349.0,4.6,351.0,4.97,13.68,47.59359,-54.27349
2023-08-16 15:24:01+00:00,2.0,4.18,4.0,4.86,13.68,47.59359,-54.27349
2023-08-16 15:34:01+00:00,6.0,3.87,6.0,4.52,13.68,47.59359,-54.27349
2023-08-16 15:44:01+00:00,13.0,2.93,16.0,3.34,13.68,47.59359,-54.27349
2023-08-16 15:54:01+00:00,359.0,2.39,6.0,3.1,13.68,47.59359,-54.27349
2023-08-16 16:04:01+00:00,1.0,5.2,4.0,6.06,13.68,47.59359,-54.27349
2023-08-16 16:14:01+00:00,352.0,5.91,354.0,6.97,13.68,47.59359,-54.27349
2023-08-16 16:24:01+00:00,0.0,5.93,1.0,6.4,13.68,47.59359,-54.27349
2023-08-16 16:34:01+00:00,359.0,4.71,359.0,5.54,13.68,47.59359,-54.27349
2023-08-16 16:44:01+00:00,357.0,6.24,357.0,7.08,13.68,47.59359,-54.27349
2023-08-16 16:54:01+00:00,348.0,6.26,350.0,6.79,13.68,47.59359,-54.27349
2023-08-16 17:04:01+00:00,355.0,6.23,352.0,6.77,13.68,47.59359,-54.27349
2023-08-16 17:14:01+00:00,357.0,5.93,356.0,6.4,13.68,47.59359,-54.27349
2023-08-16 17:24:01+00:00,359.0,7.04,357.0,7.52,13.68,47.59359,-54.27349
2023-08-16 17:34:01+00:00,355.0,6.55,354.0,7.41,13.68,47.59359,-54.27349
2023-08-16 17:44:01+00:00,7.0,6.33,8.0,7.62,13.68,47.59359,-54.27349
2023-08-16 17:54:01+00:00,13.0,5.26,13.0,5.75,13.68,47.59359,-54.27349
2023-08-16 18:04:01+00:00,358.0,6.29,357.0,7.39,13.68,47.59359,-54.27349
2023-08-16 18:14:00+00:00,2.0,6.77,4.0,7.43,13.68,47.59359,-54.27349
2023-08-16 18:24:00+00:00,6.0,5.03,8.0,6.02,13.68,47.59359,-54.27349
2023-08-16 18:34:00+00:00,10.0,4.99,10.0,6.12,13.68,47.59359,-54.27349
2023-08-16 18:44:00+00:00,14.0,5.47,19.0,6.35,13.68,47.59359,-54.27349
2023-08-16 18:54:00+00:00,5.0,6.0,8.0,6.7,13.68,47.59359,-54.27349
2023-08-16 19:04:00+00:00,35.0,5.12,41.0,5.74,13.68,47.59359,-54.27349
2023-08-16 19:14:00+00:00,37.0,6.54,37.0,7.4,13.68,47.59359,-54.27349
2023-08-16 19:24:00+00:00,28.0,4.6,30.0,4.98,13.68,47.59359,-54.27349
2023-08-16 19:34:00+00:00,50.0,9.21,51.0,10.34,13.68,47.59359,-54.27349
2023-08-16 19:44:00+00:00,48.0,7.47,48.0,8.51,13.68,47.59359,-54.27349
2023-08-16 19:54:00+00:00,43.0,6.92,43.0,8.39,13.68,47.59359,-54.27349
2023-08-16 20:04:00+00:00,49.0,8.25,47.0,9.11,13.68,47.59359,-54.27349
2023-08-16 20:14:01+00:00,55.0,7.61,53.0,8.19,13.53,47.59359,-54.27349
2023-08-16 20:24:01+00:00,52.0,7.55,58.0,8.71,13.53,47.59359,-54.27349
2023-08-16 20:34:01+00:00,54.0,7.88,54.0,8.68,13.53,47.59359,-54.27349
2023-08-16 20:44:01+00:00,50.0,6.07,48.0,6.86,13.53,47.59359,-54.27349
2023-08-16 20:54:01+00:00,54.0,7.66,55.0,8.14,13.53,47.59359,-54.27349
2023-08-16 21:04:01+00:00,54.0,6.87,52.0,8.35,13.53,47.59359,-54.27349
2023-08-16 21:14:00+00:00,66.0,7.02,63.0,7.65,13.37,47.59359,-54.27349
2023-08-16 21:24:00+00:00,55.0,7.38,53.0,8.34,13.37,47.59359,-54.27349
2023-08-16 21:34:00+00:00,45.0,8.95,43.0,9.91,13.37,47.59359,-54.27349
2023-08-16 21:44:00+00:00,49.0,8.94,48.0,9.59,13.37,47.59359,-54.27349
2023-08-16 21:54:00+00:00,53.0,6.89,55.0,8.02,13.37,47.59359,-54.27349
2023-08-16 22:04:00+00:00,46.0,7.08,41.0,8.31,13.37,47.59359,-54.27349
2023-08-16 22:14:00+00:00,48.0,7.88,45.0,8.75,12.97,47.59359,-54.27349
2023-08-16 22:24:00+00:00,45.0,8.55,46.0,9.07,12.97,47.59359,-54.27349
2023-08-16 22:34:00+00:00,54.0,8.21,54.0,9.07,12.97,47.59359,-54.27349
2023-08-16 22:44:00+00:00,55.0,7.75,51.0,8.98,12.97,47.59359,-54.27349
2023-08-16 22:54:00+00:00,52.0,7.49,51.0,8.41,12.97,47.59359,-54.27349
2023-08-16 23:04:00+00:00,49.0,7.68,43.0,9.01,12.97,47.59359,-54.27349
2023-08-16 23:14:00+00:00,51.0,8.0,51.0,8.68,12.41,47.59359,-54.27349
2023-08-16 23:24:00+00:00,49.0,7.29,50.0,8.23,12.41,47.59359,-54.27349
2023-08-16 23:34:00+00:00,49.0,7.89,53.0,8.41,12.41,47.59359,-54.27349
2023-08-16 23:44:00+00:00,45.0,7.73,43.0,8.25,12.41,47.59359,-54.27349
2023-08-16 23:54:00+00:00,49.0,8.35,50.0,9.32,12.41,47.59359,-54.27349
